CW9315 Weather Reports


Display with metric or nautical units.
time (UTC)temp
F
wind
direction
speed
MPH
gust
MPH
rain 1hr
in
rain 24hr
in
rain mn
in
humidity
%
barometer
mb
20260504231549 72 252 4.0 0.0 0.00 0.00 0.00 31 999.1
20260504230049 71 209 7.0 0.0 0.00 0.00 0.00 32 999.1
20260504224605 72 240 5.0 0.0 0.00 0.00 0.00 32 999.1
20260504223048 73 278 4.0 0.0 0.00 0.00 0.00 31 999.1
20260504221547 74 303 3.0 0.0 0.00 0.00 0.00 26 999.1
20260504220046 75 288 0.0 0.0 0.00 0.00 0.00 24 999.1
20260504214544 75 302 1.0 0.0 0.00 0.00 0.00 27 999.4
20260504213100 75 294 0.0 0.0 0.00 0.00 0.00 27 999.7
20260504211540 74 271 1.0 0.0 0.00 0.00 0.00 28 1000.0
20260504210039 74 270 1.0 0.0 0.00 0.00 0.00 24 1000.1
20260504204536 75 333 0.0 0.0 0.00 0.00 0.00 29 1000.2
20260504203035 74 198 1.0 0.0 0.00 0.00 0.00 27 1000.4
20260504201534 73 306 1.0 0.0 0.00 0.00 0.00 29 1000.5
20260504200030 73 307 1.0 0.0 0.00 0.00 0.00 30 1000.7
20260504194528 72 268 1.0 0.0 0.00 0.00 0.00 28 1000.8
20260504193025 72 182 1.0 0.0 0.00 0.00 0.00 29 1001.1
20260504191524 72 298 1.0 0.0 0.00 0.00 0.00 28 1001.2
20260504190022 72 284 1.0 0.0 0.00 0.00 0.00 30 1001.4
20260504184521 72 284 1.0 0.0 0.00 0.00 0.00 31 1001.5
20260504183022 71 258 2.0 0.0 0.00 0.00 0.00 33 1001.7
20260504181516 71 216 0.0 0.0 0.00 0.00 0.00 31 1001.9
20260504180015 71 225 1.0 0.0 0.00 0.00 0.00 30 1002.1
20260504174512 70 129 0.0 0.0 0.00 0.00 0.00 34 1002.2
20260504173022 69 343 0.0 0.0 0.00 0.00 0.00 35 1002.3
20260504171510 69 186 0.0 0.0 0.00 0.00 0.00 36 1002.4
20260504081507 51 16 1.0 0.0 0.00 0.00 0.00 45 1002.7
20260504044645 58 9 0.0 0.0 0.00 0.00 0.00 39 1003.3
20260504043046 59 9 0.0 0.0 0.00 0.00 0.00 38 1003.3
20260504041544 59 9 0.0 0.0 0.00 0.00 0.00 36 1003.3
20260504040044 60 9 0.0 0.0 0.00 0.00 0.00 34 1003.3
20260504034552 61 9 0.0 0.0 0.00 0.00 0.00 31 1003.3
20260504033053 62 9 0.0 0.0 0.00 0.00 0.00 31 1003.3
20260504031543 63 9 0.0 0.0 0.00 0.00 0.00 31 1003.2
20260504030042 64 9 0.0 0.0 0.00 0.00 0.00 28 1003.2
20260504024546 66 9 0.0 0.0 0.00 0.00 0.00 26 1003.2
20260504023041 68 9 0.0 0.0 0.00 0.00 0.00 24 1003.0
20260504021541 69 9 2.0 0.0 0.00 0.00 0.00 23 1003.1
20260504020041 69 9 1.0 0.0 0.00 0.00 0.00 24 1003.2
20260504014539 70 9 1.0 0.0 0.00 0.00 0.00 24 1003.5
20260504013038 70 9 2.0 0.0 0.00 0.00 0.00 24 1003.7
20260504011533 71 9 2.0 0.0 0.00 0.00 0.00 24 1003.8
20260504010043 72 9 3.0 0.0 0.00 0.00 0.00 24 1004.0
20260504004530 73 5 2.0 0.0 0.00 0.00 0.00 25 1004.2
20260504003029 74 5 3.0 0.0 0.00 0.00 0.00 22 1004.3
20260504001527 74 5 3.0 0.0 0.00 0.00 0.00 19 1004.4
20260504000026 75 11 1.0 0.0 0.00 0.00 0.00 19 1004.5
20260503234526 77 296 0.0 0.0 0.00 0.00 0.00 15 1004.6
20260503233023 75 296 0.0 0.0 0.00 0.00 0.00 16 1004.8